Location: Unspecified
(0.0000°N, 0.0000°E)
Time: 10:53:43
(UTC+00:00)

Hubble Space Telescope - Pass Details

Date: 23 March 2019
Orbit: 537 x 540 km, 28.5° (Epoch: 23 March)

Event Time Altitude Azimuth Distance (km) Brightness Sun altitude
Exits shadow 05:07:19 26° 274° (W) 1,060 1.7 -14.9°
Maximum altitude 05:09:19 51° 210° (SSW) 674 1.0 -14.4°
Drops below altitude 10° 05:13:20 10° 134° (SE) 1,782 4.1 -13.4°
Sets 05:15:38 0° 128° (SE) 2,673 5.2 -12.8°
